Weather in Valjevo

Serbia     44°16′27″N   19°53′47″E
temp.,
°C
wind,
m/s
gust,
m/s
humid.,
%
clouds,
%
prec.,
mm/h
press.,
hPa
HPBL,
m
14 april, wed
wed1423:00+2nw3898100 1.4 1020433
02:00+2wnw4993100 1.8 1020991
05:00+2wnw51088100 0.1 10201037
08:00+1wnw41091100 0.3 10211137
11:00+3wnw7107998 0.1 10211086
14:00+5nw797486 0.3 10211256
17:00+5nw697386 0.2 10211140
20:00+4wnw3883100 0.3 1022901
15 april, thu
thu1523:00+3w498692 0.1 1022565
02:00+1wsw359013 0.2 1023133
05:00+1w3487100 0.0 102368
08:00+4wnw476579 0.0 10231005
11:00+7nw665384 0.0 10221685
14:00+8nw5648100 0.1 10221878
17:00+8nnw565167 0.1 10211601
20:00+3w32701 0.1 102221
16 april, fri
fri1623:00+2sw32693 0.0 102324
02:00+1sw22710 0.0 102310
05:00+1ssw22730 0.0 102310
08:00+5nnw0060100 0.0 1023170
11:00+8ne324990 0.0 10231133
14:00+10ne334570 0.0 10221413
17:00+10ne444820 0.0 10201308
20:00+5ene116799 0.0 102010
17 april, sat
sat1723:00+5ssw116599 0.0 102010
02:00+5ssw2264100 0.0 101918
05:00+4sse116799 0.0 101710
08:00+6ene126391 0.0 1015303
11:00+5ene2382100 0.4 1016649
14:00+4ene2396100 1.8 1015628
17:00+4ene1497100 1.3 1014686
20:00+4ese0397100 3.9 1013368
18 april, sun
sun1823:00+3wsw1196100 3.8 101297
02:00+3ssw1295100 8.1 1012205
05:00+3ssw1196100 0.1 1013107
08:00+5ssw118899 0.1 1013206
11:00+9ne117488 0.0 1014729
14:00+9ne2280100 0.1 1015635
17:00+7n2489100 0.1 1015455
20:00+6nnw1293100 0.1 1016153